TimeMDT,TemperatureF,Dew PointF,Humidity,Sea Level PressureIn,VisibilityMPH,Wind Direction,Wind SpeedMPH,Gust SpeedMPH,PrecipitationIn,Events,Conditions,WindDirDegrees,DateUTC
12:15 AM,42.8,26.6,53,30.01,10.0,WNW,3.5,-,N/A,,Clear,300,2013-03-28 06:15:00
12:35 AM,42.8,24.8,49,30.02,10.0,WSW,3.5,-,N/A,,Clear,240,2013-03-28 06:35:00
12:55 AM,41.0,23.0,49,30.02,10.0,WSW,5.8,-,N/A,,Clear,250,2013-03-28 06:55:00
1:15 AM,42.8,26.6,53,30.02,10.0,WSW,8.1,-,N/A,,Clear,250,2013-03-28 07:15:00
1:35 AM,39.2,23.0,52,30.02,10.0,WNW,4.6,-,N/A,,Clear,300,2013-03-28 07:35:00
1:55 AM,41.0,24.8,53,30.03,10.0,West,8.1,-,N/A,,Clear,270,2013-03-28 07:55:00
2:15 AM,39.2,24.8,56,30.03,10.0,Calm,Calm,-,N/A,,Clear,0,2013-03-28 08:15:00
2:35 AM,37.4,21.2,52,30.03,10.0,Calm,Calm,-,N/A,,Clear,0,2013-03-28 08:35:00
2:55 AM,35.6,21.2,56,30.03,10.0,Calm,Calm,-,N/A,,Clear,0,2013-03-28 08:55:00
3:15 AM,37.4,23.0,56,30.03,10.0,SW,4.6,-,N/A,,Clear,230,2013-03-28 09:15:00
3:35 AM,35.6,24.8,65,30.03,10.0,South,4.6,-,N/A,,Clear,170,2013-03-28 09:35:00
3:55 AM,37.4,23.0,56,30.03,10.0,SSW,3.5,-,N/A,,Clear,200,2013-03-28 09:55:00
4:15 AM,37.4,24.8,60,30.03,10.0,SW,5.8,-,N/A,,Clear,230,2013-03-28 10:15:00
4:36 AM,35.6,24.8,65,30.03,10.0,SW,6.9,-,N/A,,Clear,230,2013-03-28 10:36:00
4:55 AM,33.8,21.2,60,30.03,10.0,Calm,Calm,-,N/A,,Clear,0,2013-03-28 10:55:00
5:15 AM,37.4,24.8,60,30.03,10.0,Calm,Calm,-,N/A,,Clear,0,2013-03-28 11:15:00
5:35 AM,32.0,19.4,60,30.04,10.0,Calm,Calm,-,N/A,,Clear,0,2013-03-28 11:35:00
5:55 AM,35.6,23.0,60,30.04,10.0,SW,5.8,-,N/A,,Clear,220,2013-03-28 11:55:00
6:15 AM,35.6,23.0,60,30.04,10.0,Calm,Calm,-,N/A,,Clear,0,2013-03-28 12:15:00
6:35 AM,33.8,23.0,65,30.05,10.0,WSW,8.1,-,N/A,,Clear,240,2013-03-28 12:35:00
6:55 AM,35.6,24.8,65,30.05,10.0,SW,10.4,-,N/A,,Clear,230,2013-03-28 12:55:00
7:15 AM,35.6,24.8,65,30.05,10.0,West,5.8,-,N/A,,Clear,260,2013-03-28 13:15:00
7:35 AM,37.4,24.8,60,30.06,10.0,WSW,6.9,-,N/A,,Clear,250,2013-03-28 13:35:00
7:55 AM,39.2,24.8,56,30.07,10.0,SW,10.4,-,N/A,,Clear,230,2013-03-28 13:55:00
8:15 AM,41.0,24.8,53,30.07,10.0,SW,11.5,-,N/A,,Clear,230,2013-03-28 14:15:00
8:35 AM,42.8,24.8,49,30.07,10.0,SW,6.9,-,N/A,,Clear,230,2013-03-28 14:35:00
8:55 AM,44.6,26.6,49,30.07,10.0,WSW,5.8,-,N/A,,Clear,250,2013-03-28 14:55:00
9:15 AM,44.6,26.6,49,30.07,10.0,SW,8.1,-,N/A,,Clear,230,2013-03-28 15:15:00
9:35 AM,46.4,26.6,46,30.07,10.0,WSW,8.1,-,N/A,,Clear,240,2013-03-28 15:35:00
9:55 AM,48.2,26.6,43,30.07,10.0,SW,10.4,-,N/A,,Clear,220,2013-03-28 15:55:00
10:15 AM,51.8,24.8,35,30.07,10.0,West,8.1,-,N/A,,Clear,260,2013-03-28 16:15:00
10:35 AM,51.8,24.8,35,30.07,10.0,NW,4.6,-,N/A,,Clear,310,2013-03-28 16:35:00
10:55 AM,51.8,24.8,35,30.07,10.0,Calm,Calm,-,N/A,,Clear,0,2013-03-28 16:55:00
11:15 AM,53.6,24.8,33,30.07,10.0,North,3.5,-,N/A,,Clear,350,2013-03-28 17:15:00
11:35 AM,53.6,24.8,33,30.06,10.0,NNW,4.6,16.1,N/A,,Clear,340,2013-03-28 17:35:00
11:55 AM,55.4,24.8,31,30.06,10.0,North,4.6,-,N/A,,Clear,350,2013-03-28 17:55:00
12:15 PM,55.4,24.8,31,30.05,10.0,NNW,6.9,-,N/A,,Clear,340,2013-03-28 18:15:00
12:35 PM,55.4,21.2,26,30.04,10.0,SW,12.7,17.3,N/A,,Partly Cloudy,230,2013-03-28 18:35:00
12:55 PM,57.2,21.2,25,30.04,10.0,SW,12.7,18.4,N/A,,Mostly Cloudy,230,2013-03-28 18:55:00
1:15 PM,59.0,21.2,23,30.03,10.0,SW,12.7,19.6,N/A,,Overcast,230,2013-03-28 19:15:00
1:35 PM,57.2,21.2,25,30.03,10.0,WSW,11.5,17.3,N/A,,Overcast,250,2013-03-28 19:35:00
1:55 PM,59.0,21.2,23,30.03,10.0,West,12.7,17.3,N/A,,Overcast,260,2013-03-28 19:55:00
2:15 PM,59.0,21.2,23,30.02,10.0,SW,9.2,-,N/A,,Overcast,220,2013-03-28 20:15:00
2:35 PM,60.8,21.2,22,30.02,10.0,West,11.5,16.1,N/A,,Mostly Cloudy,260,2013-03-28 20:35:00
2:55 PM,59.0,21.2,23,30.01,10.0,WNW,8.1,-,N/A,,Mostly Cloudy,290,2013-03-28 20:55:00
3:15 PM,60.8,19.4,20,30.01,10.0,WSW,11.5,17.3,N/A,,Scattered Clouds,250,2013-03-28 21:15:00
3:35 PM,60.8,19.4,20,30.00,10.0,SW,8.1,-,N/A,,Mostly Cloudy,230,2013-03-28 21:35:00
3:55 PM,60.8,19.4,20,29.99,10.0,West,13.8,-,N/A,,Scattered Clouds,260,2013-03-28 21:55:00
4:15 PM,60.8,19.4,20,29.99,10.0,West,9.2,16.1,N/A,,Partly Cloudy,280,2013-03-28 22:15:00
4:35 PM,60.8,19.4,20,29.99,10.0,WSW,8.1,-,N/A,,Partly Cloudy,240,2013-03-28 22:35:00
4:55 PM,60.8,19.4,20,30.00,10.0,Calm,Calm,-,N/A,,Mostly Cloudy,0,2013-03-28 22:55:00
5:15 PM,59.0,21.2,23,30.00,10.0,North,5.8,-,N/A,,Mostly Cloudy,360,2013-03-28 23:15:00
5:35 PM,60.8,21.2,22,29.99,10.0,North,5.8,-,N/A,,Partly Cloudy,350,2013-03-28 23:35:00
5:55 PM,59.0,19.4,22,30.00,10.0,NE,6.9,-,N/A,,Scattered Clouds,40,2013-03-28 23:55:00
6:35 PM,57.2,19.4,23,30.00,10.0,ENE,9.2,-,N/A,,Partly Cloudy,70,2013-03-29 00:35:00
6:55 PM,55.4,21.2,26,30.00,10.0,East,10.4,-,N/A,,Clear,90,2013-03-29 00:55:00
7:15 PM,55.4,19.4,25,30.00,10.0,East,12.7,18.4,N/A,,Clear,100,2013-03-29 01:15:00
7:55 PM,53.6,19.4,26,30.01,10.0,ESE,13.8,-,N/A,,Clear,110,2013-03-29 01:55:00
9:15 PM,48.2,19.4,32,30.04,10.0,SW,4.6,-,N/A,,Clear,220,2013-03-29 03:15:00
9:35 PM,48.2,19.4,32,30.04,10.0,Calm,Calm,-,N/A,,Clear,0,2013-03-29 03:35:00
9:55 PM,44.6,19.4,37,30.04,10.0,Calm,Calm,-,N/A,,Clear,0,2013-03-29 03:55:00
10:35 PM,42.8,17.6,36,30.04,10.0,South,4.6,-,N/A,,Clear,190,2013-03-29 04:35:00
10:55 PM,42.8,19.4,39,30.04,10.0,South,5.8,-,N/A,,Clear,180,2013-03-29 04:55:00
11:15 PM,42.8,19.4,39,30.04,10.0,South,8.1,-,N/A,,Clear,170,2013-03-29 05:15:00
11:35 PM,42.8,19.4,39,30.04,10.0,SSE,4.6,-,N/A,,Clear,160,2013-03-29 05:35:00
11:55 PM,42.8,19.4,39,30.04,10.0,South,10.4,-,N/A,,Clear,180,2013-03-29 05:55:00